| time (UTC) | temp C | wind direction | speed KPH | gust KPH | rain 1hr cm | rain 24hr cm | rain mn cm | humidity % | barometer mb |
| 20260504004710 | 21 | 205 | 3.2 | 9.7 | 0.00 | 0.00 | 0.00 | 35 | 1007.1 |
| 20260504002710 | 22 | 211 | 4.8 | 8.0 | 0.00 | 0.00 | 0.00 | 32 | 1007.2 |
| 20260504001711 | 22 | 182 | 0.0 | 3.2 | 0.00 | 0.00 | 0.00 | 29 | 1007.3 |
| 20260503235710 | 22 | 306 | 0.0 | 4.8 | 0.00 | 0.00 | 0.00 | 31 | 1007.6 |
| 20260503234711 | 22 | 253 | 1.6 | 4.8 | 0.00 | 0.00 | 0.00 | 30 | 1007.5 |
| 20260503232710 | 23 | 202 | 4.8 | 14.5 | 0.00 | 0.00 | 0.00 | 31 | 1007.7 |
| 20260503231711 | 23 | 265 | 6.4 | 11.3 | 0.00 | 0.00 | 0.00 | 32 | 1007.6 |
| 20260503225710 | 23 | 302 | 4.8 | 8.0 | 0.00 | 0.00 | 0.00 | 36 | 1007.7 |
| 20260503224710 | 23 | 201 | 0.0 | 4.8 | 0.00 | 0.00 | 0.00 | 41 | 1007.8 |
| 20260503222711 | 23 | 0 | 3.2 | 11.3 | 0.00 | 0.00 | 0.00 | 34 | 1007.8 |
| 20260503220711 | 23 | 11 | 4.8 | 16.1 | 0.00 | 0.00 | 0.00 | 32 | 1008.0 |
| 20260503215710 | 23 | 295 | 3.2 | 12.9 | 0.00 | 0.00 | 0.00 | 31 | 1008.3 |
| 20260503213710 | 24 | 304 | 8.0 | 19.3 | 0.00 | 0.00 | 0.00 | 31 | 1008.6 |
| 20260503212711 | 23 | 69 | 3.2 | 4.8 | 0.00 | 0.00 | 0.00 | 32 | 1008.7 |
| 20260503211710 | 23 | 21 | 3.2 | 19.3 | 0.00 | 0.00 | 0.00 | 31 | 1008.8 |
| 20260503203711 | 22 | 334 | 4.8 | 19.3 | 0.00 | 0.00 | 0.00 | 35 | 1009.3 |
| 20260503201710 | 22 | 67 | 3.2 | 11.3 | 0.00 | 0.00 | 0.00 | 30 | 1009.5 |
| 20260503200711 | 22 | 317 | 8.0 | 14.5 | 0.00 | 0.00 | 0.00 | 33 | 1009.7 |
| 20260503195711 | 23 | 288 | 4.8 | 19.3 | 0.00 | 0.00 | 0.00 | 35 | 1009.9 |
| 20260503192710 | 23 | 306 | 9.7 | 20.9 | 0.00 | 0.00 | 0.00 | 34 | 1010.2 |
| 20260503191711 | 22 | 80 | 6.4 | 14.5 | 0.00 | 0.00 | 0.00 | 33 | 1010.2 |
| 20260503190710 | 22 | 53 | 6.4 | 16.1 | 0.00 | 0.00 | 0.00 | 33 | 1010.5 |
| 20260503185710 | 22 | 13 | 8.0 | 16.1 | 0.00 | 0.00 | 0.00 | 33 | 1010.6 |
| 20260503184710 | 22 | 32 | 16.1 | 20.9 | 0.00 | 0.00 | 0.00 | 38 | 1010.7 |
| 20260503183711 | 22 | 292 | 11.3 | 22.5 | 0.00 | 0.00 | 0.00 | 33 | 1010.8 |
| 20260503182710 | 22 | 301 | 11.3 | 19.3 | 0.00 | 0.00 | 0.00 | 32 | 1010.8 |
| 20260503181710 | 22 | 17 | 8.0 | 19.3 | 0.00 | 0.00 | 0.00 | 37 | 1010.9 |
| 20260503180710 | 22 | 57 | 3.2 | 19.3 | 0.00 | 0.00 | 0.00 | 33 | 1011.1 |
| 20260503175711 | 22 | 30 | 11.3 | 20.9 | 0.00 | 0.00 | 0.00 | 35 | 1011.3 |
| 20260503174710 | 21 | 292 | 3.2 | 16.1 | 0.00 | 0.00 | 0.00 | 35 | 1011.5 |
| 20260503172711 | 21 | 333 | 8.0 | 19.3 | 0.00 | 0.00 | 0.00 | 38 | 1011.6 |
| 20260503171710 | 21 | 46 | 9.7 | 19.3 | 0.00 | 0.00 | 0.00 | 36 | 1011.6 |
| 20260503170710 | 21 | 16 | 4.8 | 16.1 | 0.00 | 0.00 | 0.00 | 39 | 1011.7 |
| 20260503150711 | 18 | 49 | 9.7 | 19.3 | 0.00 | 0.00 | 0.00 | 42 | 1012.2 |
| 20260503110710 | 10 | 278 | 1.6 | 4.8 | 0.00 | 0.00 | 0.00 | 63 | 1010.3 |
| 20260503080711 | 12 | 217 | 16.1 | 25.7 | 0.00 | 0.00 | 0.00 | 44 | 1010.3 |
| 20260503072710 | 12 | 220 | 16.1 | 25.7 | 0.00 | 0.00 | 0.00 | 43 | 1010.6 |
| 20260503070710 | 13 | 215 | 16.1 | 32.2 | 0.00 | 0.00 | 0.00 | 41 | 1010.9 |
| 20260503054710 | 14 | 213 | 17.7 | 27.4 | 0.00 | 0.00 | 0.00 | 38 | 1011.1 |
| 20260503053710 | 15 | 153 | 17.7 | 27.4 | 0.00 | 0.00 | 0.00 | 37 | 1011.1 |
| 20260503052710 | 15 | 183 | 14.5 | 40.2 | 0.00 | 0.00 | 0.00 | 37 | 1011.2 |
| 20260503051711 | 15 | 212 | 17.7 | 29.0 | 0.00 | 0.00 | 0.00 | 36 | 1011.3 |
| 20260503050711 | 15 | 185 | 24.1 | 37.0 | 0.00 | 0.00 | 0.00 | 36 | 1011.2 |
| 20260503045710 | 15 | 184 | 19.3 | 32.2 | 0.00 | 0.00 | 0.00 | 36 | 1011.4 |
| 20260503044710 | 15 | 196 | 17.7 | 33.8 | 0.00 | 0.00 | 0.00 | 36 | 1011.4 |
| 20260503043710 | 15 | 199 | 12.9 | 27.4 | 0.00 | 0.00 | 0.00 | 36 | 1011.5 |
| 20260503041710 | 15 | 194 | 16.1 | 29.0 | 0.00 | 0.00 | 0.00 | 35 | 1011.5 |
| 20260503040711 | 15 | 190 | 16.1 | 24.1 | 0.00 | 0.00 | 0.00 | 36 | 1011.7 |
| 20260503034710 | 15 | 191 | 14.5 | 27.4 | 0.00 | 0.00 | 0.00 | 36 | 1012.1 |
| 20260503033711 | 15 | 178 | 14.5 | 22.5 | 0.00 | 0.00 | 0.00 | 35 | 1012.1 |
| 20260503032710 | 15 | 225 | 16.1 | 22.5 | 0.00 | 0.00 | 0.00 | 36 | 1012.2 |
| 20260503031711 | 15 | 186 | 12.9 | 20.9 | 0.00 | 0.00 | 0.00 | 35 | 1012.3 |
| 20260503030710 | 15 | 182 | 11.3 | 22.5 | 0.00 | 0.00 | 0.00 | 36 | 1012.6 |
| 20260503025711 | 16 | 184 | 11.3 | 24.1 | 0.00 | 0.00 | 0.00 | 36 | 1012.7 |
| 20260503024710 | 16 | 192 | 11.3 | 22.5 | 0.00 | 0.00 | 0.00 | 36 | 1012.8 |
| 20260503023710 | 16 | 176 | 8.0 | 14.5 | 0.00 | 0.00 | 0.00 | 36 | 1012.8 |
| 20260503022710 | 16 | 186 | 9.7 | 14.5 | 0.00 | 0.00 | 0.00 | 35 | 1012.7 |
| 20260503021711 | 16 | 190 | 8.0 | 14.5 | 0.00 | 0.00 | 0.00 | 35 | 1012.8 |
| 20260503020711 | 16 | 190 | 6.4 | 12.9 | 0.00 | 0.00 | 0.00 | 34 | 1012.8 |
| 20260503015710 | 17 | 193 | 8.0 | 12.9 | 0.00 | 0.00 | 0.00 | 34 | 1012.9 |
| 20260503014710 | 17 | 199 | 8.0 | 12.9 | 0.00 | 0.00 | 0.00 | 34 | 1013.0 |
| 20260503013710 | 17 | 195 | 9.7 | 12.9 | 0.00 | 0.00 | 0.00 | 34 | 1013.1 |
| 20260503012710 | 18 | 197 | 8.0 | 14.5 | 0.00 | 0.00 | 0.00 | 32 | 1013.2 |
| 20260503011710 | 18 | 187 | 4.8 | 9.7 | 0.00 | 0.00 | 0.00 | 31 | 1013.3 |
| 20260503010711 | 19 | 178 | 4.8 | 11.3 | 0.00 | 0.00 | 0.00 | 30 | 1013.6 |
| 20260503005710 | 20 | 207 | 8.0 | 11.3 | 0.00 | 0.00 | 0.00 | 28 | 1013.7 |